Location: Barrio de Canyet
(41.4665°N, 2.2381°E)
Time: 02:02:37
(UTC+00:00)

Cosmos 1726 - Pass Details

Date: 09 April 2020
Orbit: 482 x 499 km, 82.5° (Epoch: 05 June)

Event Time Altitude Azimuth Distance (km) Brightness Sun altitude
Rises 18:59:15 0° 189° (S) 2,577 5.7 -7.0°
Reaches altitude 10° 19:01:21 10° 190° (S) 1,699 4.8 -7.4°
Maximum altitude 19:05:05 80° 278° (W) 512 2.3 -8.0°
Drops below altitude 10° 19:08:50 10° 6° (N) 1,709 5.0 -8.7°
Sets 19:10:57 0° 7° (N) 2,595 5.9 -9.1°
